GEFSSGP_850_meantemp_060.txt.gz
Temperature
21 20 19 20 25 30 32 32 32 32 32 31 30 31 31 31 31 29 24 23 22 22 21 22 22 21 21 21 20 20 20 20 20 20 20 20 20 20 20 20 19 19 19 19 19 19 19 19 19
20 19 20 24 29 32 32 32 32 32 31 30 30 30 31 30 27 25 23 22 22 21 21 22 22 21 21 21 21 20 20 20 20 20 20 20 20 20 20 20 20 19 19 19 19 19 19 19 19
20 20 24 29 32 32 32 32 32 32 31 31 31 30 30 29 26 24 23 22 22 21 21 22 22 21 21 21 21 21 21 20 20 20 20 20 20 20 20 20 20 20 20 20 20 20 20 20 19
20 22 26 30 32 32 32 33 32 32 31 31 31 31 29 25 25 24 23 22 22 21 21 22 22 22 21 21 21 21 21 21 21 21 21 20 20 20 20 20 20 20 20 20 20 20 20 20 19
22 27 31 32 33 33 33 32 32 33 32 31 31 31 29 24 24 24 23 22 22 21 20 21 22 22 21 21 21 21 21 21 21 21 21 20 20 20 20 20 20 20 19 19 19 19 19 19 19
26 30 31 32 32 33 33 32 32 33 32 31 31 31 28 24 24 24 23 22 22 21 21 20 22 21 21 21 21 21 21 21 21 21 21 20 20 20 20 20 20 19 19 19 19 19 19 19 19
28 31 32 32 32 32 33 32 32 32 32 31 31 31 29 25 24 23 23 22 22 22 21 20 20 21 21 21 21 21 21 21 21 20 20 20 20 20 20 20 19 19 19 19 19 19 19 19 19
28 31 31 32 32 32 32 32 32 32 32 30 30 31 30 25 24 23 22 22 22 21 21 19 19 19 20 20 21 21 20 20 20 20 20 20 20 20 20 19 19 19 19 19 19 19 18 18 18
27 30 31 32 32 32 32 32 32 31 31 29 29 29 28 25 24 23 22 21 21 21 20 20 20 19 19 19 19 20 20 20 20 20 20 20 19 19 19 19 19 19 19 19 19 18 18 18 18
28 30 31 32 32 32 32 31 31 32 32 30 28 26 25 24 23 23 22 21 21 20 20 20 19 19 19 19 19 19 19 19 20 19 19 19 18 18 18 18 19 19 19 19 18 18 18 18 17
30 30 31 31 31 31 31 31 30 31 31 29 28 26 24 24 23 23 22 22 21 20 20 20 19 19 19 19 19 19 19 19 19 18 18 18 18 18 18 18 18 18 18 18 17 18 17 17 17
30 30 30 30 30 30 30 30 30 28 27 26 26 25 24 24 24 23 22 21 21 20 20 20 19 19 19 19 19 19 18 18 18 18 18 18 18 18 18 18 18 17 18 18 17 18 17 17 17
29 30 29 29 29 29 29 29 28 26 24 24 24 24 24 24 23 23 22 21 21 20 20 19 19 19 19 19 18 18 18 18 18 18 18 18 18 18 18 18 18 18 18 18 18 18 17 17 17
30 29 29 29 29 28 29 28 27 24 23 22 22 22 23 22 22 22 21 20 20 20 20 19 19 18 18 18 18 18 18 18 18 18 18 18 18 18 18 17 18 18 18 17 18 17 17 17 17
28 29 30 30 29 29 29 27 24 23 22 22 21 20 19 19 19 19 19 19 20 19 19 19 18 18 18 18 18 17 17 18 17 17 18 18 18 18 18 18 18 18 18 17 17 17 17 17 17
29 30 30 29 29 28 29 27 23 22 22 21 20 19 18 18 18 18 18 18 18 18 18 18 18 17 17 18 18 17 17 17 17 17 17 17 17 17 17 17 17 17 17 17 17 17 17 17 17
30 30 30 29 28 29 29 25 22 22 22 21 20 19 18 17 17 17 17 17 18 17 17 18 17 17 17 17 17 17 17 17 17 17 17 17 17 17 16 17 17 17 17 17 17 17 17 17 17
29 30 29 29 28 28 27 24 22 21 21 20 19 19 18 17 16 16 16 17 17 17 17 17 17 17 17 17 17 17 16 17 16 16 16 16 16 16 16 16 16 17 17 17 17 17 17 17 17
29 29 29 28 27 27 25 24 22 21 21 20 20 19 18 17 16 16 16 17 17 17 17 17 17 17 17 17 16 16 16 16 16 15 15 15 16 16 16 16 16 16 16 17 16 16 16 16 16
29 29 28 27 26 26 25 24 23 22 20 20 19 19 18 18 17 16 16 16 16 16 17 17 17 17 17 17 17 16 16 16 16 15 15 15 15 15 15 16 16 16 16 16 16 16 16 16 16
29 29 29 28 26 26 26 24 23 22 21 20 19 19 18 18 18 17 16 16 16 16 16 16 17 17 17 17 16 16 16 16 15 15 15 15 15 15 15 15 16 16 16 16 16 16 16 16 16
28 29 29 28 27 27 27 26 24 23 23 22 21 20 19 18 18 17 17 16 16 16 16 16 17 16 16 16 15 15 15 15 15 15 15 15 15 15 15 15 15 15 15 15 15 16 16 16 16
28 28 28 28 28 27 27 27 25 24 24 23 21 20 19 18 18 17 17 16 16 16 16 16 16 16 16 16 15 15 15 15 15 14 14 14 14 14 14 14 15 15 15 15 15 15 15 16 16
28 28 28 28 28 26 26 26 24 25 23 23 22 20 19 18 18 17 17 16 16 16 16 15 15 15 15 15 15 15 14 14 14 14 14 14 14 14 14 14 14 14 14 14 14 15 15 15 15
28 28 27 26 26 26 26 26 23 24 23 23 22 21 20 19 18 18 17 17 17 16 16 15 15 15 14 14 14 14 14 13 13 13 14 13 13 13 13 13 13 13 13 13 13 13 14 14 14
28 28 26 25 26 26 26 25 24 23 22 21 21 21 20 19 19 18 18 17 17 16 16 15 15 14 14 14 14 13 13 13 13 13 13 13 13 13 13 12 12 12 12 12 12 12 13 13 13
28 28 28 27 26 26 26 25 23 23 23 22 22 21 20 20 19 19 18 17 17 16 15 15 14 14 13 13 13 13 13 13 13 12 12 12 12 12 12 12 12 11 11 11 11 11 12 12 12
27 27 27 26 25 25 25 25 24 23 23 23 22 21 20 20 19 19 18 17 16 16 15 14 14 13 13 13 13 13 13 12 12 12 12 12 12 11 11 11 11 11 11 11 10 11 11 11 11
27 27 26 26 25 24 24 24 23 23 22 22 22 21 20 19 19 18 17 16 16 15 15 14 13 13 12 12 12 12 12 12 12 12 11 11 11 11 11 11 11 10 10 10 10 10 10 10 10
26 26 26 25 24 24 25 24 23 23 23 22 21 20 19 18 18 17 16 16 15 14 14 13 13 12 12 12 11 11 11 11 11 11 11 11 11 11 11 11 10 10 10 10 10 10 10 10 10

GEFSSGP_850_meantemp_066.txt.gz
Temperature
23 22 21 22 25 26 27 30 33 34 34 34 34 34 34 32 31 29 28 27 25 25 25 24 24 23 22 22 21 21 20 20 20 20 19 19 19 19 19 19 19 19 19 19 19 19 19 19 19
23 22 22 25 26 25 27 31 33 34 35 35 34 34 33 31 30 29 27 26 25 25 25 24 24 23 22 22 21 21 20 20 20 19 19 19 19 19 19 19 19 19 19 19 19 19 19 19 19
22 23 26 29 29 28 30 32 34 35 35 34 34 33 32 31 29 28 27 26 24 24 24 24 24 23 23 22 21 21 20 20 20 20 19 19 19 19 19 19 19 19 19 19 19 19 20 20 20
23 26 28 30 31 33 34 34 35 35 35 34 34 33 30 29 29 28 27 25 23 23 24 24 24 23 23 22 22 21 21 20 20 20 20 20 20 20 20 20 20 20 19 19 20 20 20 20 20
24 28 30 32 33 35 35 35 35 35 35 34 34 32 29 28 28 27 26 25 24 22 23 24 24 23 23 22 22 21 21 20 20 20 20 20 20 20 20 20 20 20 20 20 20 20 20 20 20
27 31 31 32 34 35 36 35 35 35 35 34 33 31 28 28 27 27 27 26 25 23 23 24 24 23 23 22 22 21 21 21 21 20 20 20 20 20 20 20 20 20 20 20 19 20 20 20 20
28 31 31 33 34 35 36 35 35 35 35 34 33 31 28 28 27 27 27 26 26 24 23 24 23 23 23 22 22 22 21 21 21 21 21 20 20 20 20 20 20 20 20 20 19 20 20 20 20
29 31 31 33 34 35 36 35 35 35 34 33 33 31 28 28 27 27 27 27 26 24 23 23 23 23 23 22 22 22 21 21 21 21 21 21 20 20 20 20 20 20 20 20 20 19 19 19 19
29 30 30 32 34 35 36 35 35 34 34 32 31 30 29 28 28 27 27 27 26 25 23 22 22 22 22 22 22 22 21 21 21 21 20 20 20 20 20 20 20 19 19 20 19 19 19 19 19
30 30 31 34 35 35 35 34 34 34 32 30 30 29 28 28 27 27 27 27 26 25 24 23 22 21 21 20 21 21 21 21 21 20 20 20 20 19 19 19 19 19 19 19 19 19 19 19 19
31 31 32 34 34 34 34 34 33 33 31 29 28 28 28 28 27 27 27 27 26 25 25 24 22 21 21 21 20 20 20 20 20 19 19 19 19 19 19 19 19 19 19 19 19 19 19 19 19
32 32 33 33 33 33 34 33 32 32 30 29 29 29 28 28 27 27 26 26 25 24 24 24 22 21 21 21 20 20 20 20 19 19 19 19 19 18 19 19 19 18 18 19 18 18 18 18 18
32 33 33 33 33 33 33 33 32 31 29 28 28 28 27 27 27 26 25 24 24 23 23 23 22 21 20 20 20 20 20 20 20 19 19 19 19 18 18 18 18 18 18 18 18 18 18 18 18
32 33 33 33 33 33 33 32 31 30 28 27 26 25 25 24 24 24 24 23 23 22 22 22 21 20 20 20 20 20 20 20 19 19 19 19 18 18 18 18 18 18 18 18 18 18 18 18 18
32 32 32 33 33 33 32 30 30 28 27 26 24 23 22 22 22 22 22 21 21 21 21 21 20 20 19 19 19 19 19 19 19 19 18 18 18 18 18 18 18 18 18 18 18 18 18 18 18
32 31 31 31 32 32 32 29 28 27 27 25 23 22 21 20 21 20 20 20 20 20 20 20 19 19 19 18 18 18 18 18 18 18 18 18 18 17 17 17 17 17 17 17 17 17 17 17 17
30 29 30 30 30 31 31 28 27 27 26 24 23 22 21 20 20 20 20 19 19 19 19 19 19 19 18 18 18 18 18 18 18 18 18 17 17 17 17 17 17 17 17 17 17 17 17 17 17
28 28 28 28 29 30 29 27 27 27 26 24 23 22 21 20 20 19 19 19 19 19 19 19 18 18 18 18 18 18 17 17 17 17 17 17 17 17 16 16 16 16 16 16 16 16 16 16 17
29 28 28 28 29 30 29 27 27 27 26 25 24 22 21 20 20 19 19 19 18 18 18 18 18 18 18 18 18 17 17 17 17 17 17 17 16 16 16 16 16 16 16 16 16 16 16 16 16
30 28 28 28 29 30 28 27 27 26 25 24 23 23 22 21 20 19 19 18 18 18 18 18 17 17 17 17 17 17 17 17 17 16 16 16 16 16 16 15 16 15 15 15 16 15 16 16 16
28 27 27 28 28 28 26 24 23 24 24 24 24 23 23 22 21 20 20 19 18 18 18 17 17 17 17 17 17 16 16 16 16 16 16 16 16 15 15 15 15 15 15 15 15 15 15 16 16
27 28 28 28 27 26 25 21 20 20 22 24 24 24 23 22 22 21 20 20 19 18 18 17 17 17 16 16 16 16 16 16 16 16 16 15 15 15 15 15 15 15 15 15 15 15 15 15 16
28 29 27 26 25 24 23 21 19 19 21 23 24 24 23 23 22 21 21 20 19 19 18 18 17 17 16 16 16 15 15 15 15 15 15 15 15 15 15 14 14 14 14 14 14 15 15 15 15
30 28 25 23 22 21 22 21 19 19 21 24 25 24 23 23 22 22 21 20 20 19 19 18 18 17 16 16 15 15 14 14 14 14 14 14 14 15 15 14 14 14 14 14 14 14 14 15 15
29 25 21 19 19 20 21 22 21 23 24 26 25 25 24 23 23 22 21 21 20 19 19 18 18 17 16 15 15 14 14 14 14 14 14 14 14 14 14 14 14 14 13 13 14 14 14 14 14
29 27 23 22 21 21 21 21 23 26 26 26 25 25 24 24 23 22 22 21 20 20 19 18 17 17 16 15 15 14 14 14 13 13 13 13 13 14 14 14 13 13 13 13 13 13 13 13 13
29 29 29 28 26 24 22 21 23 26 26 26 26 25 25 24 23 23 22 21 20 19 18 18 17 16 15 15 14 14 14 13 13 13 13 13 13 13 13 13 13 13 13 12 12 12 12 12 13
30 30 29 28 26 25 24 22 22 24 25 26 26 25 24 24 23 22 21 20 19 18 18 17 16 16 15 14 14 14 13 13 13 12 12 12 12 12 12 12 12 12 12 12 12 12 12 12 12
30 29 29 28 27 26 25 23 25 25 26 26 26 25 24 23 22 21 20 19 18 18 17 16 15 15 14 14 13 13 12 12 12 11 11 11 11 11 11 11 11 12 12 11 11 11 11 11 11
30 29 29 27 27 27 27 24 27 27 27 26 25 24 23 22 21 20 19 18 18 17 16 15 14 14 13 13 12 12 12 11 11 11 10 10 10 10 10 10 11 11 11 11 11 11 11 11 11

GEFSSGP_850_meantemp_072.txt.gz
Temperature
22 21 21 20 19 20 22 24 26 27 28 29 29 29 28 27 25 24 23 24 24 24 23 22 22 22 21 21 21 21 20 20 20 20 20 20 20 20 20 20 20 19 19 19 19 19 19 19 19
22 21 20 20 20 21 23 25 27 28 29 30 29 29 27 26 24 23 23 24 24 24 23 23 22 22 21 21 21 20 20 20 20 20 20 20 20 20 20 20 20 20 20 20 20 20 20 19 19
22 21 20 19 21 22 24 27 28 29 30 30 29 29 28 26 24 24 25 24 24 24 23 23 22 22 21 21 21 21 20 20 20 20 20 20 20 20 20 20 20 20 20 20 20 20 20 20 20
22 21 20 20 22 24 26 28 29 29 30 29 28 27 27 26 26 25 24 24 24 24 23 23 22 22 22 21 21 21 21 20 20 20 20 20 20 20 20 20 20 20 20 20 20 20 20 20 20
22 21 20 20 23 26 28 30 30 29 29 28 28 26 26 26 27 25 24 24 24 24 23 23 22 22 22 21 21 21 21 20 20 20 20 20 20 20 20 20 20 20 20 20 20 20 20 20 20
22 21 20 21 24 28 29 30 30 29 28 28 27 25 25 25 26 25 24 24 24 24 23 23 22 22 22 22 21 21 21 21 20 20 20 20 20 20 20 20 20 20 20 20 20 20 20 20 20
22 20 21 23 25 27 30 30 30 28 28 27 27 25 25 24 25 24 24 24 24 24 24 23 23 22 22 22 21 21 21 21 20 20 20 20 20 20 20 20 20 20 20 20 20 20 20 20 20
24 21 22 23 25 26 29 29 29 28 27 27 27 25 25 24 24 24 23 23 23 24 24 23 23 23 22 22 22 21 21 21 21 20 20 20 20 20 20 20 20 20 20 20 20 20 20 20 20
25 21 20 23 25 26 28 28 28 28 27 27 27 27 26 25 24 23 23 22 23 23 23 23 23 23 22 22 22 21 21 21 21 20 20 20 20 20 20 20 19 19 19 19 19 19 19 19 19
24 20 22 24 26 26 28 28 28 27 26 25 26 26 26 25 24 23 23 22 22 22 22 22 22 22 22 22 21 21 21 21 20 20 20 20 20 20 19 19 19 19 19 19 19 19 19 19 19
24 23 24 26 27 28 27 27 27 26 24 24 24 24 24 24 24 23 22 22 22 22 22 22 22 22 21 21 21 20 20 20 20 20 20 19 19 19 19 19 18 18 18 18 18 18 18 18 19
24 25 26 27 28 28 28 27 25 25 24 25 24 24 24 24 23 23 22 22 22 22 22 22 21 21 21 21 20 20 20 20 19 19 19 19 19 19 19 18 18 18 18 18 18 18 18 18 18
25 25 27 28 28 28 27 26 24 24 24 23 23 23 23 23 22 22 22 22 22 21 21 21 20 20 20 20 19 19 19 19 19 19 19 19 18 18 18 18 18 18 18 17 17 17 17 18 18
26 26 27 27 27 27 26 25 23 22 23 22 22 21 21 22 22 22 21 21 21 21 21 20 20 20 20 19 19 19 19 19 18 18 18 18 18 18 18 18 18 18 18 17 17 17 17 17 17
27 25 24 25 26 26 25 23 22 21 21 20 20 20 20 20 21 21 21 21 20 20 20 20 19 20 20 19 19 19 19 18 18 18 18 18 18 18 18 17 18 18 17 17 17 17 17 17 17
24 23 23 24 24 25 23 20 21 20 20 19 19 19 19 19 19 20 20 20 20 20 20 20 20 19 19 19 19 18 18 18 18 18 18 18 17 17 17 17 17 17 17 17 17 17 17 17 17
21 21 22 23 24 24 21 19 20 20 20 19 19 19 19 19 19 19 19 19 20 20 20 19 19 19 19 19 18 18 18 18 17 17 17 17 17 17 17 17 17 17 17 17 16 16 16 16 16
21 21 22 22 23 22 20 19 19 19 19 19 18 18 19 19 18 19 19 19 19 19 19 19 19 19 19 18 18 18 18 17 17 17 17 17 17 17 17 17 17 16 16 16 16 16 16 16 16
23 22 22 22 22 21 19 18 18 18 18 18 18 19 18 19 19 19 19 19 19 19 19 19 19 19 18 18 18 17 17 17 17 16 16 16 16 16 16 16 16 16 16 16 15 15 16 16 16
23 22 21 22 22 20 19 18 18 17 18 18 19 19 19 19 19 19 19 19 19 19 19 19 19 19 18 18 18 17 17 17 16 16 16 16 15 15 15 15 15 15 15 15 15 15 15 15 15
22 21 21 21 21 20 19 18 17 18 17 18 19 19 19 20 20 19 19 19 20 19 19 19 19 18 18 18 17 17 17 16 16 16 15 15 15 15 14 14 14 14 15 14 14 14 14 14 15
22 23 23 22 20 17 18 17 17 17 17 18 18 19 19 20 20 20 20 20 20 19 19 19 18 18 18 17 17 17 16 16 15 15 15 15 15 14 14 14 14 14 14 14 14 14 14 14 14
22 23 22 21 18 17 17 17 17 17 17 18 19 20 20 21 21 21 20 20 20 19 19 19 18 18 17 17 16 16 16 15 15 14 14 14 14 14 14 13 14 14 14 14 14 14 14 14 14
23 21 19 18 17 17 17 17 17 16 17 18 19 20 21 21 21 21 21 20 20 19 19 18 18 17 17 16 16 15 15 15 14 14 14 14 13 13 13 13 13 13 13 13 13 13 13 13 14
22 19 18 18 17 17 17 17 17 18 18 18 19 20 21 21 21 21 20 20 19 19 19 18 18 17 16 16 15 15 14 14 14 13 13 13 13 13 13 13 13 13 13 13 13 13 13 13 13
22 20 19 19 17 16 17 17 17 18 19 19 20 21 21 21 21 21 20 20 19 19 18 18 17 17 16 15 15 14 14 13 13 13 12 12 12 12 12 12 12 12 12 12 12 12 12 13 13
23 21 20 17 17 16 16 17 18 19 19 20 20 21 21 21 21 20 20 19 19 18 18 17 17 16 15 15 14 13 13 13 12 12 12 12 12 11 11 11 11 12 12 12 12 12 12 12 12
23 22 18 17 17 17 17 17 17 19 19 19 19 20 21 21 20 20 20 19 18 18 17 16 16 15 14 14 13 13 12 12 12 11 11 11 11 11 11 11 11 11 11 11 11 11 11 11 12
23 23 20 18 18 17 17 18 19 19 19 19 19 21 21 21 20 20 19 18 18 17 16 15 15 14 13 13 12 12 12 11 11 11 10 10 10 10 10 10 10 10 10 10 10 11 11 11 11
24 23 20 20 19 17 17 18 21 19 19 20 20 21 21 20 19 19 18 18 17 16 15 15 14 13 13 12 12 11 11 10 10 10 10 10 9 9 9 9 9 9 10 10 10 10 10 10 10

GEFSSGP_850_meantemp_078.txt.gz
Temperature
21 20 19 19 18 18 20 22 24 25 26 26 26 26 25 23 23 23 22 23 22 21 21 20 20 20 21 21 21 21 21 21 21 21 20 20 20 20 20 19 19 19 19 19 19 19 19 19 19
21 20 19 19 19 20 22 23 25 25 26 27 27 26 24 22 22 22 23 22 22 21 21 20 20 20 21 21 21 21 21 21 21 20 20 20 20 20 20 19 19 19 19 19 19 19 19 19 19
20 19 19 18 19 20 23 25 25 26 27 27 26 25 24 22 23 23 23 22 22 21 21 20 20 20 20 21 21 21 20 20 20 20 20 20 20 20 20 19 19 19 19 19 19 19 19 19 19
20 19 19 18 20 21 23 25 25 26 27 27 26 24 23 22 23 24 23 23 22 21 21 21 20 20 20 20 20 20 20 20 20 20 20 20 20 20 20 19 19 19 19 19 19 19 19 19 19
20 20 18 18 20 21 23 25 26 26 26 26 25 23 21 22 23 24 23 23 22 22 21 21 20 20 20 20 20 20 20 20 20 20 20 20 20 20 20 20 19 19 19 19 19 19 19 19 19
20 18 18 19 21 23 25 26 26 26 26 26 25 22 20 21 23 23 23 23 22 22 21 20 20 20 20 20 20 20 20 20 20 20 20 20 20 20 20 19 19 19 19 19 19 19 19 19 19
20 17 19 20 21 23 25 26 25 25 25 25 24 21 20 20 22 23 23 22 22 21 21 21 20 20 20 20 20 20 20 19 19 19 19 19 19 19 19 19 19 19 19 19 19 19 19 19 19
21 17 19 19 21 23 25 26 25 25 24 24 24 21 20 20 21 22 22 22 21 21 21 21 20 20 20 20 20 20 19 19 19 19 19 19 19 19 19 19 19 19 19 19 19 19 19 19 18
21 18 18 20 22 23 24 24 25 24 24 23 23 23 22 21 21 22 21 21 21 21 21 21 21 20 20 20 20 19 19 19 19 19 19 19 19 19 19 18 18 19 19 19 19 19 19 18 18
21 18 19 21 22 23 24 23 23 23 23 22 22 22 22 21 21 22 22 21 21 21 21 21 20 20 20 20 20 20 19 19 19 19 19 18 18 18 18 18 18 18 18 18 18 18 18 18 18
20 19 21 22 24 24 23 22 22 22 21 21 21 21 21 21 21 21 21 22 22 21 21 21 21 20 20 20 20 19 19 19 19 18 18 18 18 18 18 18 18 18 18 18 18 18 18 18 18
20 21 22 23 24 24 23 22 21 20 20 21 21 21 21 21 21 21 21 21 21 21 21 21 20 20 20 20 19 19 19 19 18 18 18 18 18 18 18 18 18 18 17 17 17 17 17 17 17
21 21 23 23 23 22 21 20 20 19 20 20 20 20 20 20 20 20 20 20 20 20 20 20 20 20 19 19 19 19 19 18 18 18 18 18 18 18 18 18 17 17 17 17 17 17 17 17 17
23 22 22 22 22 21 20 19 19 18 19 19 19 19 19 19 20 20 20 20 20 20 20 20 20 20 19 19 18 18 18 18 18 18 18 18 18 17 17 17 17 17 17 17 17 17 17 17 17
23 22 21 21 21 21 20 19 18 18 19 19 18 18 19 19 19 20 20 20 20 20 20 19 19 19 19 18 18 18 18 18 18 18 18 17 17 17 17 17 17 17 16 17 17 17 17 17 17
21 21 20 20 20 20 20 18 18 18 19 18 18 18 18 18 19 19 19 19 20 19 19 19 19 19 18 18 18 18 18 17 17 17 17 17 17 17 17 17 16 16 16 16 16 16 16 16 16
20 20 20 20 19 19 19 18 18 18 18 17 18 18 19 19 19 19 19 19 20 19 19 19 19 18 18 18 18 18 17 17 17 17 17 17 16 16 16 16 16 16 16 16 16 16 16 16 16
21 20 20 19 19 19 17 17 17 17 18 17 17 18 19 19 19 19 19 19 19 19 19 19 19 18 18 18 18 18 17 17 17 17 17 16 16 16 16 16 16 16 16 16 16 15 15 15 15
21 20 19 19 19 18 17 17 17 17 17 17 17 17 18 18 19 19 19 19 19 19 19 19 19 19 18 18 18 17 17 17 17 16 16 16 16 16 16 15 15 15 15 15 15 15 15 15 15
20 20 19 19 19 18 17 17 17 17 17 17 17 17 18 19 19 19 19 19 19 19 19 19 19 18 18 18 18 17 17 17 16 16 16 16 15 15 15 15 15 15 14 14 14 14 14 14 14
21 20 19 19 18 18 18 17 17 17 17 17 17 18 18 19 19 19 19 19 19 19 19 19 18 18 18 18 17 17 17 16 16 16 15 15 15 15 14 14 14 14 14 14 14 14 14 14 14
21 21 20 19 18 16 17 17 17 16 17 17 17 18 19 19 19 19 19 19 19 19 19 18 18 18 18 17 17 17 16 16 15 15 15 14 14 14 14 14 14 13 13 13 13 13 13 13 13
20 20 19 18 17 16 16 17 17 16 17 17 17 18 19 19 19 20 20 20 19 19 19 18 18 18 17 17 16 16 16 15 15 14 14 14 14 13 13 13 13 13 13 13 13 13 13 13 13
20 19 17 16 16 17 16 16 17 16 17 17 18 19 20 20 20 20 20 19 19 19 18 18 18 17 17 16 16 15 15 15 14 14 13 13 13 13 13 13 13 12 12 12 12 12 12 12 12
19 18 17 18 16 16 16 16 16 17 17 17 18 19 20 20 20 20 20 19 19 19 18 18 17 17 16 16 15 15 14 14 13 13 13 13 12 12 12 12 12 12 12 12 12 12 12 12 12
19 19 18 19 17 16 16 16 17 18 18 19 19 19 20 20 20 20 20 19 19 19 18 17 17 16 16 15 15 14 13 13 13 12 12 12 12 11 11 11 11 11 11 11 11 11 12 12 12
19 18 17 15 16 16 17 17 17 18 18 18 18 19 20 20 20 20 20 19 19 18 17 17 16 15 15 14 14 13 13 12 12 12 11 11 11 11 10 10 10 10 10 10 11 11 11 11 11
19 16 15 16 17 18 18 17 17 19 18 18 18 19 20 20 20 20 19 19 18 17 17 16 15 15 14 13 13 12 12 11 11 11 11 10 10 10 10 10 10 10 10 10 10 10 10 11 11
20 18 15 14 16 17 18 17 17 18 18 18 18 19 20 20 20 19 19 18 17 17 16 15 15 14 13 13 12 12 11 11 10 10 10 10 10 9 9 9 9 9 9 9 9 9 10 10 10
21 19 16 18 17 15 16 17 18 17 17 18 19 20 20 20 19 19 18 18 17 16 15 15 14 13 13 12 11 11 11 10 10 10 10 9 9 9 9 9 9 9 9 9 9 9 9 9 9